This demonstration page uses our WeatherBlox Daily Observations layout. Learn more.

39.29038, -76.61219

Hourly Observations for May 2, 2019

Temp ( °F °C ) Dew Point ( °F °C ) Humidity (%) Winds ( mph kmh ) Pressure ( in mb ) Visibility ( mi km ) Precip ( " mm )
12:54 am 00:54 undefined 60 15.6 58 14.4 93 93 undefined N/A 30.16 1021 N/A 0 0
1:54 am 01:54 undefined 60 15.6 58 14.4 93 93 undefined N/A 30.14 1021 N/A 0 0
2:54 am 02:54 undefined 59 15 58 14.4 96 96 undefined N/A 30.12 1020 N/A 0 0
3:54 am 03:54 undefined 59 15 58 14.4 96 96 undefined N/A 30.11 1020 N/A 0 0
4:54 am 04:54 undefined 59 15 58 14.4 96 96 undefined N/A 30.11 1020 N/A 0 0
5:54 am 05:54 undefined 60 15.6 58 14.4 93 93 undefined N/A 30.12 1020 N/A 0 0
6:54 am 06:54 undefined 60 15.6 58 14.4 93 93 undefined N/A 30.13 1020 N/A 0 0
8:54 am 08:54 undefined 64 17.8 59 15 84 84 undefined N/A 30.14 1021 N/A 0 0
9:54 am 09:54 undefined 67 19.4 60 15.6 79 79 undefined N/A 30.14 1021 N/A 0 0
10:54 am 10:54 undefined 71 21.7 61 16.1 71 71 undefined N/A 30.13 1020 N/A 0 0
11:54 am 11:54 undefined 74 23.3 62 16.7 67 67 undefined N/A 30.12 1020 N/A 0 0
12:54 pm 12:54 undefined 77 25 63 17.2 62 62 undefined N/A 30.1 1019 N/A 0 0
1:54 pm 13:54 undefined 76 24.4 63 17.2 64 64 undefined N/A 30.09 1019 N/A 0 0
2:54 pm 14:54 undefined 77 25 63 17.2 62 62 undefined N/A 30.07 1018 N/A 0 0
3:54 pm 15:54 undefined 77 25 64 17.8 64 64 undefined N/A 30.06 1018 N/A 0 0
4:54 pm 16:54 undefined 73 22.8 67 19.4 81 81 undefined N/A 30.06 1018 N/A 0.01 0.254
5:54 pm 17:54 undefined 74 23.3 63 17.2 69 69 undefined N/A 30.06 1018 N/A 0 0
6:54 pm 18:54 undefined 74 23.3 61 16.1 64 64 undefined N/A 30.06 1018 N/A 0 0
7:54 pm 19:54 undefined 72 22.2 64 17.8 76 76 undefined N/A 30.08 1019 N/A 0 0
8:54 pm 20:54 undefined 71 21.7 64 17.8 79 79 undefined N/A 30.08 1019 N/A 0 0
9:54 pm 21:54 undefined 69 20.6 64 17.8 84 84 undefined N/A 30.09 1019 N/A 0 0
10:54 pm 22:54 undefined 69 20.6 64 17.8 84 84 undefined N/A 30.08 1019 N/A 0 0
11:54 pm 23:54 undefined 67 19.4 64 17.8 91 91 undefined N/A 30.08 1019 N/A 0 0

Powered by AerisWeather